Regional Weather Roundup
Issued by NWS

Home | Current Version | Previous Version | Text Only | Print | Product List | Glossary Off
Versions: 1 2 3 4 5 6 7 8 9 10 11 12 13 14 15 16 17 18 19 20 21 22 23 24 25 26 27 28 29 30 31 32 33 34 35 36 37 38 39 40 41 42 43 44 45 46 47 48 49 50

000
ASUS43 KBIS 042310
RWRND

NORTH DAKOTA REGIONAL WEATHER ROUNDUP
NATIONAL WEATHER SERVICE BISMARCK ND
600 PM CDT MON MAY 04 2015

NOTE: "FAIR" INDICATES FEW OR NO CLOUDS BELOW 12,000 FEET WITH NO
SIGNIFICANT WEATHER AND/OR OBSTRUCTIONS TO VISIBILITY.


NDZ001>003-009>011-017-050000-
NORTHWEST NORTH DAKOTA

CITY           SKY/WX    TMP DP  RH WIND       PRES   REMARKS
WILLISTON      MOSUNNY   72  36  26 S15G24    30.02F
MINOT          SUNNY     70  24  17 S12       30.08F
MINOT AFB      SUNNY     72  27  18 S10G21    30.06F
$$

NDZ018>021-031>035-040>046-050000-
SOUTHWEST NORTH DAKOTA

CITY           SKY/WX    TMP DP  RH WIND       PRES   REMARKS
BISMARCK       SUNNY     68  24  19 SE13      30.14F
DICKINSON      MOSUNNY   61  36  39 S25       30.09F
GARRISON         N/A     70  27  20 S15       30.10F
HETTINGER ARPT CLOUDY    53  35  50 SE14      30.14F
$$

NDZ004>008-012>016-024-026-027-054-050000-
NORTHEAST NORTH DAKOTA

CITY           SKY/WX    TMP DP  RH WIND       PRES   REMARKS
GRAND FORKS    SUNNY     68  24  19 E5        30.15F
GRND FRKS AFB  SUNNY     69  24  18 W3        30.15F
DEVILS LAKE    SUNNY     66  25  20 S3        30.14F
$$

NDZ022-023-025-028>030-036>039-047>053-050000-
SOUTHEAST NORTH DAKOTA

CITY           SKY/WX    TMP DP  RH WIND       PRES   REMARKS
FARGO          SUNNY     69  25  19 VRB6      30.16F
JAMESTOWN      SUNNY     67  24  19 S9        30.15F
$$




USA.gov is the U.S. government's official web portal to all federal, state and local government web resources and services.